QPF
0.01 0.02 0.04 0.06 0.04 0.02 0.03 0.05 0.05 0.04 0.04 0.07 0.07 0.07 0.07 0.06 0.03 0.01 0.02 0.02 0.04 0.04 0.07 0.12 0.10 0.07 0.08 0.08 0.07 0.06 0.05 0.04 0.04 0.04 0.02 0.01 0.02 0.02 0.02 0.02 0.02 0.01 0.01 0.01 0.01 0.01 0.01 0.01 0.02
0.01 0.03 0.05 0.04 0.02 0.02 0.03 0.05 0.05 0.05 0.05 0.04 0.05 0.08 0.09 0.06 0.03 0.03 0.03 0.03 0.04 0.03 0.04 0.07 0.06 0.05 0.07 0.07 0.05 0.03 0.04 0.03 0.02 0.01 0.00 0.00 0.01 0.02 0.02 0.01 0.01 0.01 0.01 0.01 0.00 0.01 0.01 0.02 0.02
0.02 0.04 0.04 0.02 0.01 0.02 0.05 0.05 0.04 0.05 0.06 0.05 0.05 0.06 0.08 0.06 0.05 0.05 0.03 0.01 0.03 0.03 0.05 0.05 0.05 0.05 0.07 0.05 0.04 0.02 0.01 0.00 0.00 0.00 0.00 0.00 0.01 0.02 0.03 0.02 0.01 0.00 0.00 0.00 0.01 0.01 0.01 0.01 0.01
0.03 0.03 0.02 0.01 0.01 0.02 0.03 0.04 0.06 0.06 0.05 0.04 0.04 0.05 0.06 0.08 0.08 0.05 0.02 0.01 0.02 0.04 0.05 0.04 0.04 0.04 0.05 0.02 0.01 0.01 0.00 0.00 0.00 0.00 0.00 0.00 0.01 0.02 0.02 0.02 0.00 0.00 0.00 0.00 0.00 0.01 0.01 0.01 0.00
0.03 0.02 0.01 0.01 0.03 0.04 0.03 0.04 0.05 0.06 0.04 0.03 0.03 0.05 0.08 0.11 0.12 0.06 0.03 0.03 0.03 0.04 0.04 0.04 0.04 0.04 0.03 0.01 0.01 0.01 0.00 0.00 0.00 0.00 0.00 0.01 0.01 0.01 0.01 0.01 0.00 0.00 0.00 0.00 0.00 0.00 0.00 0.01 0.01
0.02 0.01 0.01 0.01 0.03 0.04 0.03 0.04 0.05 0.05 0.03 0.01 0.02 0.04 0.06 0.11 0.15 0.09 0.06 0.04 0.03 0.03 0.04 0.04 0.04 0.02 0.01 0.00 0.00 0.00 0.00 0.00 0.00 0.00 0.00 0.00 0.01 0.00 0.00 0.00 0.00 0.00 0.00 0.00 0.00 0.00 0.00 0.01 0.01
0.02 0.01 0.01 0.03 0.03 0.04 0.05 0.04 0.05 0.05 0.03 0.02 0.01 0.03 0.05 0.07 0.08 0.06 0.06 0.05 0.03 0.03 0.03 0.03 0.03 0.02 0.01 0.01 0.00 0.01 0.01 0.00 0.00 0.00 0.00 0.00 0.00 0.00 0.00 0.00 0.00 0.00 0.00 0.00 0.00 0.00 0.01 0.01 0.01
0.03 0.01 0.01 0.03 0.03 0.04 0.09 0.06 0.05 0.05 0.04 0.02 0.02 0.03 0.05 0.04 0.04 0.03 0.03 0.03 0.03 0.02 0.02 0.03 0.02 0.02 0.02 0.01 0.01 0.01 0.01 0.01 0.01 0.00 0.00 0.00 0.00 0.00 0.00 0.00 0.00 0.00 0.00 0.00 0.00 0.00 0.00 0.00 0.00
0.03 0.01 0.01 0.02 0.04 0.06 0.11 0.08 0.05 0.04 0.03 0.02 0.01 0.01 0.02 0.03 0.03 0.03 0.03 0.02 0.02 0.01 0.01 0.02 0.02 0.01 0.01 0.01 0.02 0.02 0.01 0.01 0.00 0.00 0.00 0.00 0.00 0.00 0.00 0.00 0.00 0.00 0.00 0.00 0.00 0.00 0.00 0.00 0.00
0.03 0.01 0.02 0.02 0.03 0.06 0.11 0.12 0.09 0.07 0.06 0.03 0.02 0.02 0.02 0.03 0.03 0.01 0.01 0.01 0.01 0.01 0.01 0.01 0.01 0.01 0.01 0.01 0.01 0.01 0.00 0.00 0.00 0.00 0.00 0.00 0.00 0.00 0.00 0.00 0.00 0.00 0.00 0.00 0.00 0.00 0.00 0.00 0.00
0.02 0.02 0.03 0.03 0.04 0.04 0.08 0.12 0.08 0.06 0.05 0.03 0.02 0.02 0.02 0.02 0.02 0.02 0.01 0.01 0.01 0.01 0.01 0.01 0.01 0.01 0.00 0.00 0.00 0.00 0.00 0.00 0.00 0.00 0.00 0.00 0.00 0.00 0.00 0.00 0.00 0.00 0.00 0.00 0.00 0.00 0.00 0.00 0.00
0.02 0.02 0.03 0.04 0.04 0.04 0.07 0.06 0.04 0.05 0.03 0.01 0.01 0.02 0.02 0.04 0.04 0.03 0.01 0.01 0.01 0.01 0.01 0.01 0.01 0.01 0.01 0.00 0.00 0.00 0.00 0.00 0.00 0.00 0.00 0.00 0.00 0.00 0.00 0.00 0.00 0.00 0.00 0.00 0.00 0.00 0.00 0.00 0.00
0.02 0.02 0.02 0.04 0.06 0.04 0.04 0.05 0.03 0.02 0.02 0.01 0.01 0.02 0.02 0.02 0.03 0.03 0.02 0.02 0.02 0.01 0.01 0.01 0.01 0.01 0.01 0.01 0.01 0.00 0.00 0.01 0.00 0.00 0.00 0.00 0.00 0.00 0.00 0.00 0.00 0.00 0.00 0.00 0.00 0.00 0.00 0.00 0.00
0.02 0.03 0.02 0.02 0.04 0.03 0.03 0.04 0.04 0.03 0.02 0.01 0.02 0.02 0.03 0.03 0.02 0.02 0.02 0.03 0.03 0.02 0.03 0.03 0.03 0.02 0.02 0.02 0.02 0.01 0.01 0.01 0.01 0.00 0.00 0.00 0.00 0.00 0.00 0.00 0.00 0.00 0.00 0.00 0.00 0.00 0.00 0.00 0.00
0.03 0.04 0.04 0.04 0.03 0.03 0.02 0.04 0.04 0.03 0.02 0.02 0.02 0.01 0.01 0.01 0.02 0.01 0.01 0.02 0.02 0.04 0.05 0.04 0.03 0.04 0.03 0.03 0.04 0.04 0.02 0.01 0.01 0.00 0.00 0.00 0.00 0.00 0.00 0.00 0.00 0.00 0.00 0.00 0.00 0.00 0.00 0.00 0.00
0.03 0.04 0.06 0.05 0.03 0.04 0.04 0.04 0.02 0.02 0.04 0.03 0.02 0.02 0.02 0.02 0.02 0.02 0.01 0.01 0.02 0.03 0.03 0.04 0.05 0.04 0.04 0.04 0.04 0.04 0.02 0.01 0.01 0.00 0.00 0.00 0.00 0.00 0.00 0.00 0.00 0.00 0.00 0.00 0.00 0.00 0.00 0.01 0.00
0.03 0.03 0.05 0.05 0.04 0.04 0.03 0.02 0.01 0.02 0.04 0.04 0.02 0.02 0.03 0.02 0.01 0.01 0.01 0.02 0.01 0.03 0.02 0.02 0.02 0.01 0.02 0.03 0.02 0.01 0.01 0.01 0.00 0.00 0.00 0.00 0.00 0.00 0.00 0.00 0.00 0.00 0.00 0.00 0.00 0.00 0.00 0.00 0.00
0.01 0.02 0.02 0.03 0.03 0.03 0.02 0.01 0.01 0.01 0.02 0.02 0.01 0.02 0.02 0.01 0.01 0.01 0.01 0.01 0.01 0.01 0.02 0.01 0.00 0.01 0.02 0.02 0.02 0.01 0.01 0.00 0.00 0.01 0.00 0.00 0.00 0.00 0.00 0.00 0.00 0.00 0.00 0.00 0.00 0.00 0.00 0.00 0.00
0.01 0.01 0.01 0.02 0.02 0.03 0.02 0.01 0.01 0.02 0.02 0.02 0.01 0.01 0.01 0.01 0.01 0.01 0.01 0.01 0.01 0.02 0.01 0.01 0.01 0.01 0.01 0.02 0.01 0.01 0.00 0.00 0.00 0.00 0.00 0.00 0.00 0.00 0.00 0.00 0.00 0.00 0.00 0.00 0.00 0.00 0.00 0.00 0.00
0.02 0.01 0.01 0.02 0.03 0.03 0.02 0.02 0.02 0.02 0.02 0.02 0.01 0.01 0.01 0.02 0.02 0.02 0.01 0.01 0.01 0.02 0.01 0.01 0.01 0.02 0.01 0.01 0.01 0.01 0.01 0.00 0.00 0.00 0.00 0.00 0.00 0.00 0.00 0.00 0.00 0.00 0.00 0.00 0.00 0.00 0.00 0.00 0.01
0.03 0.02 0.01 0.02 0.02 0.02 0.02 0.02 0.02 0.02 0.02 0.02 0.02 0.02 0.02 0.01 0.01 0.01 0.01 0.01 0.01 0.01 0.01 0.01 0.01 0.01 0.01 0.01 0.01 0.01 0.00 0.00 0.00 0.00 0.00 0.00 0.00 0.00 0.00 0.00 0.00 0.00 0.00 0.00 0.00 0.00 0.00 0.00 0.00
0.03 0.03 0.02 0.02 0.02 0.02 0.03 0.03 0.01 0.01 0.01 0.02 0.03 0.02 0.02 0.02 0.02 0.01 0.01 0.01 0.01 0.01 0.02 0.02 0.01 0.01 0.01 0.01 0.01 0.00 0.00 0.00 0.00 0.00 0.00 0.00 0.00 0.00 0.00 0.00 0.00 0.00 0.00 0.00 0.00 0.00 0.00 0.01 0.01
0.02 0.02 0.02 0.02 0.03 0.02 0.02 0.02 0.01 0.01 0.01 0.01 0.01 0.01 0.01 0.01 0.01 0.02 0.02 0.02 0.01 0.01 0.01 0.01 0.01 0.01 0.01 0.01 0.01 0.01 0.00 0.00 0.00 0.00 0.00 0.00 0.00 0.00 0.00 0.00 0.00 0.00 0.00 0.00 0.00 0.00 0.00 0.00 0.00
0.03 0.03 0.03 0.03 0.03 0.02 0.01 0.01 0.01 0.00 0.01 0.01 0.01 0.01 0.01 0.01 0.01 0.02 0.02 0.02 0.01 0.01 0.01 0.01 0.01 0.01 0.01 0.01 0.00 0.01 0.01 0.00 0.00 0.00 0.00 0.00 0.00 0.00 0.00 0.00 0.00 0.00 0.00 0.00 0.00 0.00 0.00 0.00 0.00
0.04 0.03 0.03 0.03 0.03 0.02 0.01 0.01 0.00 0.01 0.01 0.00 0.00 0.01 0.00 0.01 0.01 0.01 0.01 0.01 0.01 0.01 0.01 0.00 0.01 0.01 0.01 0.01 0.01 0.01 0.01 0.00 0.00 0.00 0.00 0.00 0.00 0.00 0.00 0.00 0.00 0.00 0.00 0.00 0.00 0.00 0.00 0.00 0.01
0.01 0.01 0.01 0.01 0.01 0.01 0.01 0.00 0.00 0.00 0.00 0.00 0.00 0.01 0.01 0.01 0.01 0.01 0.01 0.01 0.02 0.01 0.01 0.00 0.01 0.01 0.01 0.01 0.01 0.01 0.01 0.00 0.00 0.00 0.00 0.00 0.00 0.00 0.00 0.00 0.00 0.01 0.01 0.00 0.00 0.00 0.00 0.01 0.01
0.01 0.00 0.00 0.00 0.00 0.00 0.00 0.00 0.00 0.00 0.00 0.00 0.00 0.01 0.01 0.00 0.00 0.00 0.01 0.01 0.01 0.01 0.01 0.01 0.00 0.01 0.01 0.01 0.01 0.01 0.01 0.00 0.00 0.00 0.00 0.00 0.00 0.00 0.00 0.00 0.00 0.00 0.00 0.00 0.00 0.01 0.01 0.01 0.00
0.00 0.00 0.01 0.01 0.01 0.00 0.00 0.00 0.00 0.00 0.00 0.00 0.00 0.00 0.00 0.00 0.00 0.00 0.01 0.01 0.02 0.01 0.01 0.01 0.00 0.01 0.00 0.00 0.01 0.01 0.01 0.00 0.00 0.00 0.00 0.00 0.00 0.00 0.00 0.00 0.00 0.00 0.00 0.00 0.00 0.00 0.00 0.01 0.00
0.00 0.00 0.01 0.01 0.00 0.00 0.00 0.00 0.00 0.00 0.00 0.00 0.01 0.01 0.00 0.01 0.01 0.00 0.01 0.02 0.02 0.02 0.01 0.01 0.00 0.00 0.00 0.00 0.00 0.00 0.00 0.00 0.00 0.00 0.00 0.00 0.00 0.00 0.00 0.00 0.00 0.00 0.00 0.00 0.00 0.00 0.00 0.00 0.00
0.00 0.00 0.01 0.01 0.01 0.00 0.00 0.00 0.00 0.00 0.00 0.00 0.01 0.01 0.01 0.00 0.01 0.01 0.01 0.01 0.01 0.01 0.00 0.00 0.00 0.00 0.00 0.00 0.00 0.00 0.00 0.00 0.00 0.00 0.00 0.00 0.00 0.00 0.00 0.00 0.00 0.00 0.00 0.00 0.00 0.00 0.00 0.00 0.00
MSLP
1009.22 1010.14 1011.34 1012.67 1013.95 1015.03 1015.82 1016.26 1016.38 1016.28 1016.09 1015.93 1015.87 1015.94 1016.11 1016.31 1016.45 1016.44 1016.24 1015.85 1015.33 1014.75 1014.22 1013.81 1013.57 1013.49 1013.55 1013.67 1013.81 1013.90 1013.93 1013.90 1013.83 1013.76 1013.74 1013.77 1013.86 1013.99 1014.13 1014.25 1014.33 1014.34 1014.30 1014.21 1014.11 1014.01 1013.93 1013.86 1013.81
1009.69 1010.79 1012.10 1013.46 1014.68 1015.64 1016.26 1016.51 1016.46 1016.22 1015.93 1015.71 1015.63 1015.71 1015.90 1016.12 1016.27 1016.28 1016.10 1015.76 1015.29 1014.78 1014.33 1014.00 1013.82 1013.80 1013.88 1014.03 1014.17 1014.26 1014.28 1014.25 1014.19 1014.12 1014.09 1014.11 1014.17 1014.26 1014.35 1014.42 1014.44 1014.42 1014.36 1014.27 1014.17 1014.08 1013.99 1013.92 1013.85
1010.29 1011.52 1012.88 1014.20 1015.31 1016.11 1016.54 1016.61 1016.42 1016.08 1015.75 1015.51 1015.44 1015.53 1015.73 1015.96 1016.11 1016.13 1015.97 1015.66 1015.25 1014.82 1014.46 1014.21 1014.11 1014.13 1014.25 1014.41 1014.54 1014.63 1014.65 1014.61 1014.55 1014.48 1014.44 1014.43 1014.45 1014.48 1014.50 1014.50 1014.47 1014.41 1014.32 1014.23 1014.14 1014.06 1013.99 1013.93 1013.86
1010.99 1012.29 1013.64 1014.86 1015.82 1016.44 1016.69 1016.62 1016.33 1015.95 1015.61 1015.40 1015.37 1015.49 1015.70 1015.92 1016.06 1016.06 1015.90 1015.62 1015.27 1014.92 1014.65 1014.48 1014.45 1014.52 1014.66 1014.80 1014.93 1014.99 1015.00 1014.95 1014.89 1014.82 1014.76 1014.73 1014.70 1014.67 1014.63 1014.56 1014.47 1014.36 1014.26 1014.16 1014.09 1014.03 1013.98 1013.93 1013.86
1011.76 1013.06 1014.33 1015.40 1016.19 1016.62 1016.72 1016.55 1016.22 1015.86 1015.58 1015.45 1015.48 1015.63 1015.85 1016.04 1016.15 1016.12 1015.95 1015.69 1015.39 1015.12 1014.92 1014.84 1014.86 1014.96 1015.09 1015.22 1015.31 1015.34 1015.32 1015.26 1015.19 1015.12 1015.06 1015.00 1014.94 1014.87 1014.76 1014.64 1014.50 1014.36 1014.24 1014.15 1014.09 1014.05 1014.02 1013.97 1013.90
1012.52 1013.76 1014.89 1015.79 1016.38 1016.64 1016.63 1016.41 1016.11 1015.83 1015.66 1015.64 1015.75 1015.95 1016.17 1016.33 1016.39 1016.31 1016.13 1015.88 1015.62 1015.42 1015.30 1015.27 1015.33 1015.44 1015.55 1015.64 1015.68 1015.66 1015.61 1015.53 1015.46 1015.39 1015.34 1015.28 1015.20 1015.10 1014.96 1014.79 1014.61 1014.45 1014.32 1014.23 1014.17 1014.14 1014.12 1014.07 1013.98
1013.21 1014.33 1015.28 1015.97 1016.37 1016.50 1016.41 1016.21 1015.99 1015.85 1015.83 1015.94 1016.14 1016.39 1016.60 1016.72 1016.72 1016.60 1016.39 1016.15 1015.94 1015.79 1015.73 1015.76 1015.84 1015.94 1016.02 1016.05 1016.03 1015.96 1015.87 1015.78 1015.70 1015.65 1015.61 1015.57 1015.49 1015.38 1015.22 1015.03 1014.83 1014.64 1014.50 1014.41 1014.35 1014.32 1014.28 1014.21 1014.11
1013.77 1014.73 1015.47 1015.95 1016.18 1016.20 1016.09 1015.94 1015.85 1015.86 1016.01 1016.26 1016.56 1016.84 1017.04 1017.12 1017.06 1016.89 1016.67 1016.44 1016.27 1016.18 1016.17 1016.24 1016.35 1016.43 1016.47 1016.45 1016.36 1016.24 1016.12 1016.01 1015.94 1015.91 1015.89 1015.86 1015.80 1015.69 1015.53 1015.33 1015.12 1014.92 1014.77 1014.66 1014.59 1014.54 1014.47 1014.38 1014.24
1014.19 1014.96 1015.48 1015.77 1015.85 1015.79 1015.69 1015.63 1015.68 1015.86 1016.17 1016.54 1016.92 1017.22 1017.40 1017.44 1017.33 1017.13 1016.89 1016.68 1016.55 1016.52 1016.57 1016.68 1016.80 1016.87 1016.88 1016.81 1016.67 1016.51 1016.36 1016.25 1016.19 1016.17 1016.18 1016.17 1016.13 1016.03 1015.87 1015.67 1015.45 1015.24 1015.07 1014.94 1014.85 1014.76 1014.67 1014.53 1014.36
1014.48 1015.05 1015.38 1015.50 1015.46 1015.37 1015.30 1015.34 1015.52 1015.85 1016.28 1016.75 1017.17 1017.48 1017.63 1017.61 1017.46 1017.24 1017.01 1016.83 1016.75 1016.77 1016.88 1017.03 1017.16 1017.23 1017.21 1017.12 1016.96 1016.77 1016.61 1016.50 1016.44 1016.44 1016.47 1016.48 1016.45 1016.36 1016.20 1016.00 1015.78 1015.57 1015.38 1015.22 1015.09 1014.97 1014.83 1014.66 1014.45
1014.70 1015.10 1015.26 1015.24 1015.14 1015.03 1015.01 1015.14 1015.43 1015.86 1016.37 1016.88 1017.31 1017.59 1017.69 1017.63 1017.45 1017.22 1017.01 1016.87 1016.84 1016.92 1017.08 1017.26 1017.41 1017.49 1017.48 1017.37 1017.21 1017.03 1016.87 1016.77 1016.72 1016.73 1016.76 1016.77 1016.75 1016.66 1016.50 1016.31 1016.08 1015.86 1015.66 1015.48 1015.31 1015.15 1014.96 1014.75 1014.50
1014.92 1015.17 1015.22 1015.12 1014.99 1014.90 1014.93 1015.12 1015.48 1015.96 1016.49 1016.98 1017.36 1017.59 1017.64 1017.54 1017.33 1017.10 1016.92 1016.83 1016.85 1016.98 1017.18 1017.39 1017.57 1017.66 1017.67 1017.58 1017.44 1017.29 1017.15 1017.06 1017.03 1017.03 1017.06 1017.06 1017.02 1016.92 1016.77 1016.58 1016.35 1016.13 1015.92 1015.72 1015.52 1015.31 1015.08 1014.83 1014.56
1015.20 1015.36 1015.34 1015.22 1015.09 1015.04 1015.12 1015.35 1015.72 1016.19 1016.67 1017.09 1017.39 1017.53 1017.52 1017.38 1017.17 1016.95 1016.80 1016.76 1016.82 1016.99 1017.22 1017.46 1017.65 1017.77 1017.81 1017.77 1017.67 1017.55 1017.45 1017.39 1017.36 1017.35 1017.35 1017.33 1017.27 1017.17 1017.01 1016.82 1016.60 1016.39 1016.17 1015.96 1015.73 1015.49 1015.23 1014.94 1014.65
1015.59 1015.71 1015.67 1015.57 1015.49 1015.48 1015.60 1015.84 1016.18 1016.58 1016.96 1017.26 1017.44 1017.49 1017.40 1017.23 1017.02 1016.84 1016.73 1016.73 1016.83 1017.02 1017.26 1017.51 1017.72 1017.86 1017.94 1017.94 1017.90 1017.84 1017.78 1017.74 1017.71 1017.69 1017.66 1017.60 1017.51 1017.39 1017.23 1017.05 1016.85 1016.65 1016.44 1016.22 1015.99 1015.72 1015.43 1015.13 1014.82
1016.07 1016.19 1016.19 1016.15 1016.13 1016.18 1016.32 1016.54 1016.81 1017.09 1017.32 1017.48 1017.53 1017.47 1017.33 1017.14 1016.96 1016.82 1016.75 1016.79 1016.91 1017.11 1017.34 1017.58 1017.80 1017.96 1018.08 1018.14 1018.16 1018.15 1018.14 1018.11 1018.08 1018.03 1017.96 1017.87 1017.75 1017.60 1017.45 1017.28 1017.11 1016.94 1016.75 1016.54 1016.30 1016.02 1015.71 1015.39 1015.08
1016.61 1016.75 1016.82 1016.86 1016.92 1017.03 1017.17 1017.35 1017.52 1017.65 1017.72 1017.72 1017.63 1017.49 1017.30 1017.12 1016.97 1016.89 1016.88 1016.95 1017.09 1017.28 1017.50 1017.72 1017.93 1018.10 1018.25 1018.36 1018.44 1018.49 1018.50 1018.49 1018.45 1018.37 1018.26 1018.12 1017.96 1017.81 1017.66 1017.51 1017.38 1017.24 1017.08 1016.89 1016.65 1016.38 1016.07 1015.75 1015.43
1017.13 1017.32 1017.47 1017.61 1017.76 1017.91 1018.05 1018.15 1018.20 1018.18 1018.08 1017.92 1017.71 1017.50 1017.30 1017.15 1017.06 1017.04 1017.09 1017.20 1017.35 1017.53 1017.72 1017.91 1018.10 1018.28 1018.45 1018.60 1018.73 1018.82 1018.87 1018.86 1018.80 1018.68 1018.52 1018.34 1018.16 1017.99 1017.85 1017.73 1017.63 1017.54 1017.41 1017.25 1017.03 1016.77 1016.47 1016.16 1015.86
1017.58 1017.83 1018.07 1018.30 1018.53 1018.72 1018.83 1018.86 1018.78 1018.60 1018.34 1018.03 1017.73 1017.47 1017.28 1017.18 1017.17 1017.23 1017.35 1017.50 1017.66 1017.83 1017.98 1018.14 1018.31 1018.48 1018.67 1018.85 1019.01 1019.13 1019.20 1019.19 1019.10 1018.94 1018.74 1018.52 1018.31 1018.14 1018.01 1017.92 1017.86 1017.81 1017.72 1017.59 1017.40 1017.16 1016.88 1016.60 1016.33
1017.94 1018.25 1018.57 1018.90 1019.19 1019.39 1019.48 1019.42 1019.21 1018.87 1018.47 1018.04 1017.66 1017.38 1017.22 1017.18 1017.26 1017.41 1017.60 1017.80 1017.97 1018.12 1018.25 1018.37 1018.51 1018.68 1018.87 1019.07 1019.26 1019.40 1019.47 1019.45 1019.34 1019.15 1018.90 1018.65 1018.42 1018.24 1018.13 1018.07 1018.05 1018.03 1017.98 1017.88 1017.72 1017.51 1017.26 1017.02 1016.79
1018.20 1018.58 1018.99 1019.39 1019.73 1019.95 1019.99 1019.84 1019.50 1019.03 1018.49 1017.97 1017.53 1017.24 1017.12 1017.16 1017.32 1017.56 1017.82 1018.05 1018.24 1018.38 1018.49 1018.58 1018.70 1018.85 1019.04 1019.25 1019.45 1019.60 1019.68 1019.64 1019.50 1019.28 1019.01 1018.73 1018.48 1018.30 1018.20 1018.17 1018.18 1018.19 1018.17 1018.10 1017.97 1017.79 1017.58 1017.38 1017.21
1018.43 1018.87 1019.36 1019.83 1020.21 1020.42 1020.42 1020.17 1019.72 1019.13 1018.48 1017.87 1017.40 1017.11 1017.02 1017.12 1017.36 1017.67 1017.99 1018.26 1018.46 1018.59 1018.67 1018.74 1018.84 1018.98 1019.16 1019.37 1019.58 1019.73 1019.80 1019.75 1019.60 1019.35 1019.06 1018.76 1018.52 1018.34 1018.25 1018.24 1018.26 1018.30 1018.30 1018.25 1018.14 1017.98 1017.81 1017.65 1017.53
1018.67 1019.19 1019.75 1020.28 1020.69 1020.89 1020.83 1020.51 1019.96 1019.26 1018.52 1017.84 1017.33 1017.04 1016.99 1017.13 1017.43 1017.79 1018.15 1018.44 1018.65 1018.77 1018.83 1018.88 1018.95 1019.07 1019.25 1019.45 1019.65 1019.80 1019.87 1019.81 1019.65 1019.39 1019.09 1018.80 1018.55 1018.38 1018.30 1018.29 1018.33 1018.37 1018.38 1018.34 1018.23 1018.09 1017.94 1017.81 1017.74
1018.95 1019.55 1020.18 1020.77 1021.20 1021.39 1021.29 1020.90 1020.27 1019.49 1018.67 1017.95 1017.41 1017.11 1017.07 1017.24 1017.56 1017.95 1018.33 1018.63 1018.83 1018.94 1018.98 1019.01 1019.06 1019.16 1019.32 1019.51 1019.71 1019.85 1019.90 1019.85 1019.68 1019.43 1019.14 1018.85 1018.61 1018.45 1018.38 1018.37 1018.40 1018.44 1018.44 1018.38 1018.27 1018.13 1017.99 1017.88 1017.83
1019.29 1019.96 1020.66 1021.29 1021.74 1021.92 1021.80 1021.36 1020.67 1019.83 1018.97 1018.21 1017.65 1017.34 1017.30 1017.47 1017.80 1018.20 1018.57 1018.87 1019.06 1019.15 1019.18 1019.18 1019.21 1019.29 1019.43 1019.60 1019.78 1019.91 1019.96 1019.91 1019.75 1019.51 1019.23 1018.96 1018.74 1018.58 1018.50 1018.49 1018.50 1018.51 1018.49 1018.41 1018.28 1018.13 1017.97 1017.85 1017.80
1019.62 1020.36 1021.12 1021.79 1022.25 1022.44 1022.29 1021.83 1021.12 1020.26 1019.38 1018.61 1018.04 1017.72 1017.67 1017.84 1018.16 1018.54 1018.90 1019.18 1019.36 1019.43 1019.44 1019.43 1019.44 1019.50 1019.61 1019.76 1019.91 1020.03 1020.07 1020.02 1019.88 1019.66 1019.40 1019.15 1018.93 1018.78 1018.69 1018.66 1018.64 1018.62 1018.55 1018.44 1018.28 1018.09 1017.91 1017.77 1017.69
1019.88 1020.67 1021.46 1022.16 1022.64 1022.82 1022.68 1022.23 1021.52 1020.67 1019.81 1019.06 1018.50 1018.19 1018.14 1018.30 1018.60 1018.96 1019.30 1019.57 1019.73 1019.80 1019.80 1019.78 1019.77 1019.81 1019.89 1020.02 1020.15 1020.24 1020.28 1020.23 1020.09 1019.89 1019.65 1019.42 1019.21 1019.05 1018.94 1018.87 1018.82 1018.75 1018.64 1018.49 1018.29 1018.07 1017.85 1017.66 1017.54
1019.96 1020.78 1021.59 1022.29 1022.78 1022.98 1022.86 1022.43 1021.77 1020.97 1020.17 1019.46 1018.95 1018.67 1018.63 1018.78 1019.08 1019.42 1019.75 1020.00 1020.16 1020.23 1020.24 1020.22 1020.21 1020.23 1020.29 1020.39 1020.49 1020.57 1020.59 1020.54 1020.41 1020.22 1019.99 1019.76 1019.55 1019.38 1019.24 1019.14 1019.04 1018.92 1018.77 1018.58 1018.34 1018.08 1017.83 1017.59 1017.42
1019.81 1020.63 1021.43 1022.12 1022.61 1022.82 1022.73 1022.36 1021.77 1021.07 1020.35 1019.74 1019.30 1019.07 1019.06 1019.24 1019.53 1019.87 1020.20 1020.45 1020.63 1020.71 1020.74 1020.73 1020.73 1020.75 1020.80 1020.88 1020.96 1021.01 1021.01 1020.95 1020.82 1020.63 1020.41 1020.18 1019.96 1019.76 1019.59 1019.44 1019.30 1019.14 1018.95 1018.72 1018.46 1018.17 1017.88 1017.61 1017.38
1019.41 1020.20 1020.96 1021.62 1022.08 1022.30 1022.25 1021.95 1021.47 1020.89 1020.31 1019.82 1019.49 1019.34 1019.39 1019.60 1019.91 1020.26 1020.60 1020.87 1021.07 1021.19 1021.25 1021.28 1021.30 1021.33 1021.39 1021.45 1021.51 1021.54 1021.53 1021.45 1021.31 1021.12 1020.90 1020.65 1020.41 1020.19 1019.98 1019.80 1019.61 1019.41 1019.19 1018.95 1018.67 1018.37 1018.07 1017.77 1017.49
1018.83 1019.55 1020.24 1020.84 1021.26 1021.48 1021.47 1021.26 1020.90 1020.47 1020.05 1019.71 1019.51 1019.47 1019.59 1019.85 1020.19 1020.57 1020.92 1021.23 1021.47 1021.63 1021.74 1021.82 1021.88 1021.94 1022.00 1022.07 1022.12 1022.13 1022.10 1022.01 1021.86 1021.66 1021.42 1021.17 1020.91 1020.66 1020.42 1020.20 1019.98 1019.75 1019.52 1019.26 1018.98 1018.69 1018.38 1018.07 1017.76
Thickness
5774 5773 5771 5759 5738 5722 5720 5729 5735 5737 5741 5748 5753 5751 5746 5741 5738 5735 5753 5762 5764 5763 5764 5764 5764 5763 5762 5761 5761 5760 5759 5758 5758 5757 5756 5756 5755 5754 5754 5754 5753 5753 5753 5753 5753 5753 5754 5754 5755
5772 5770 5760 5744 5722 5709 5717 5730 5733 5739 5746 5751 5753 5751 5746 5744 5749 5750 5755 5760 5762 5762 5762 5762 5761 5761 5760 5759 5758 5758 5757 5756 5755 5754 5753 5753 5752 5752 5751 5751 5751 5751 5750 5750 5750 5751 5751 5751 5752
5769 5765 5746 5730 5718 5710 5719 5732 5735 5744 5751 5751 5747 5748 5745 5743 5750 5752 5757 5761 5761 5760 5760 5759 5759 5758 5757 5757 5756 5755 5754 5753 5752 5751 5751 5750 5750 5749 5749 5749 5749 5748 5748 5748 5748 5748 5748 5749 5749
5760 5748 5737 5722 5717 5722 5727 5734 5739 5742 5748 5751 5747 5741 5746 5753 5754 5756 5759 5760 5759 5758 5758 5757 5757 5756 5755 5754 5754 5753 5752 5751 5750 5749 5748 5748 5748 5747 5747 5747 5747 5746 5746 5746 5745 5746 5746 5746 5747
5751 5735 5721 5712 5717 5726 5732 5737 5741 5739 5742 5746 5745 5738 5739 5750 5758 5758 5758 5757 5756 5756 5755 5755 5754 5754 5753 5752 5751 5750 5749 5748 5748 5747 5746 5746 5746 5745 5745 5745 5745 5744 5744 5744 5743 5743 5744 5744 5745
5734 5724 5707 5704 5713 5725 5732 5738 5740 5738 5739 5744 5742 5736 5736 5748 5752 5754 5755 5754 5755 5754 5753 5752 5752 5751 5751 5750 5749 5748 5747 5746 5746 5745 5745 5744 5744 5744 5744 5743 5743 5742 5742 5742 5742 5741 5742 5742 5742
5725 5715 5706 5709 5710 5718 5730 5738 5736 5735 5735 5740 5744 5733 5735 5744 5749 5752 5752 5752 5752 5752 5751 5750 5749 5749 5748 5748 5747 5746 5745 5745 5744 5743 5743 5743 5742 5742 5742 5742 5741 5741 5740 5740 5740 5739 5740 5740 5740
5729 5714 5707 5706 5709 5715 5729 5736 5738 5736 5736 5746 5746 5733 5732 5742 5748 5749 5748 5748 5748 5748 5748 5748 5747 5746 5746 5745 5744 5744 5743 5743 5742 5742 5741 5741 5741 5740 5740 5740 5739 5739 5739 5738 5738 5737 5738 5738 5738
5729 5706 5699 5707 5711 5717 5728 5730 5736 5741 5740 5743 5746 5744 5746 5748 5747 5743 5742 5742 5743 5745 5746 5746 5745 5744 5744 5743 5742 5742 5741 5741 5740 5740 5739 5739 5738 5738 5737 5737 5737 5737 5737 5736 5736 5736 5735 5736 5735
5718 5700 5707 5718 5721 5722 5726 5728 5732 5732 5731 5733 5738 5743 5747 5745 5742 5739 5737 5737 5739 5741 5743 5744 5744 5743 5742 5741 5740 5740 5739 5738 5738 5737 5737 5736 5735 5735 5735 5734 5734 5734 5734 5734 5733 5733 5733 5733 5733
5717 5708 5715 5721 5727 5728 5726 5727 5731 5726 5722 5730 5733 5736 5740 5740 5738 5737 5737 5738 5739 5741 5742 5743 5742 5741 5740 5739 5738 5737 5737 5736 5736 5735 5735 5734 5733 5732 5732 5731 5731 5731 5730 5730 5730 5730 5729 5729 5729
5714 5717 5721 5724 5730 5728 5726 5727 5726 5726 5728 5738 5741 5741 5738 5737 5736 5736 5736 5738 5739 5740 5740 5741 5741 5740 5739 5737 5736 5735 5734 5734 5734 5733 5733 5732 5730 5729 5728 5728 5727 5727 5727 5726 5726 5726 5726 5726 5726
5712 5716 5723 5727 5729 5728 5728 5725 5725 5726 5734 5739 5740 5738 5736 5735 5736 5737 5738 5738 5738 5738 5739 5740 5740 5739 5737 5735 5734 5733 5732 5732 5731 5731 5730 5729 5728 5726 5725 5724 5724 5723 5723 5722 5722 5722 5722 5721 5722
5715 5716 5719 5723 5725 5727 5723 5722 5722 5723 5732 5734 5734 5733 5734 5734 5735 5735 5735 5735 5736 5737 5737 5738 5738 5737 5735 5734 5732 5731 5730 5729 5729 5728 5727 5726 5725 5723 5722 5721 5720 5720 5719 5719 5718 5717 5717 5717 5717
5718 5712 5712 5717 5721 5722 5721 5711 5715 5724 5729 5728 5728 5729 5731 5732 5734 5734 5735 5736 5736 5736 5737 5736 5736 5735 5733 5732 5731 5729 5728 5727 5726 5725 5724 5723 5722 5721 5719 5718 5717 5716 5716 5715 5714 5714 5713 5713 5713
5710 5701 5694 5707 5715 5718 5712 5698 5714 5723 5724 5721 5723 5725 5727 5729 5732 5734 5735 5736 5735 5735 5735 5735 5735 5732 5731 5729 5728 5727 5725 5724 5723 5722 5721 5720 5719 5718 5716 5714 5713 5712 5712 5711 5710 5709 5708 5707 5707
5692 5686 5688 5698 5711 5713 5707 5699 5712 5721 5721 5718 5720 5721 5723 5725 5729 5732 5734 5734 5734 5733 5732 5731 5730 5728 5727 5726 5725 5724 5722 5721 5720 5719 5718 5717 5715 5714 5713 5711 5710 5709 5708 5707 5706 5704 5703 5702 5702
5683 5686 5688 5691 5704 5707 5701 5700 5709 5716 5718 5716 5717 5718 5720 5722 5726 5730 5732 5732 5732 5731 5730 5728 5727 5725 5724 5723 5721 5719 5719 5717 5717 5715 5714 5713 5712 5711 5710 5708 5707 5705 5704 5702 5701 5700 5699 5698 5697
5694 5689 5686 5692 5705 5702 5697 5698 5704 5711 5713 5713 5713 5716 5717 5720 5725 5728 5729 5729 5728 5727 5726 5725 5723 5722 5721 5719 5716 5714 5713 5713 5713 5713 5712 5711 5710 5709 5707 5705 5703 5702 5700 5698 5697 5696 5694 5693 5693
5694 5687 5686 5693 5704 5700 5694 5695 5703 5708 5710 5713 5714 5714 5717 5718 5721 5723 5725 5725 5725 5724 5723 5722 5721 5720 5719 5717 5715 5713 5712 5711 5710 5710 5709 5708 5707 5706 5704 5702 5700 5698 5696 5695 5693 5692 5689 5688 5688
5692 5689 5689 5691 5696 5698 5694 5689 5697 5705 5711 5714 5716 5717 5718 5719 5719 5720 5721 5721 5722 5721 5721 5721 5719 5718 5717 5716 5714 5711 5709 5708 5707 5706 5706 5705 5704 5703 5702 5700 5698 5695 5693 5691 5689 5688 5686 5683 5683
5688 5700 5698 5694 5684 5677 5686 5672 5690 5697 5703 5708 5712 5714 5716 5718 5719 5719 5720 5719 5720 5720 5720 5719 5718 5716 5715 5714 5712 5709 5706 5703 5703 5702 5702 5702 5702 5701 5699 5698 5696 5693 5691 5689 5687 5685 5683 5681 5679
5696 5704 5698 5692 5683 5675 5679 5673 5682 5694 5696 5704 5710 5713 5715 5717 5719 5719 5719 5720 5720 5719 5718 5717 5715 5714 5713 5712 5710 5708 5704 5702 5701 5700 5700 5699 5699 5698 5697 5695 5693 5691 5689 5687 5684 5683 5681 5679 5677
5704 5696 5689 5682 5675 5665 5675 5672 5678 5688 5699 5706 5711 5713 5715 5717 5717 5718 5718 5718 5717 5716 5715 5714 5712 5711 5710 5709 5708 5706 5703 5701 5699 5697 5696 5696 5695 5695 5694 5693 5691 5689 5686 5684 5682 5681 5679 5677 5676
5697 5680 5663 5660 5656 5661 5677 5674 5681 5704 5710 5712 5713 5713 5715 5716 5715 5715 5715 5714 5714 5713 5712 5711 5710 5708 5708 5707 5705 5704 5702 5700 5698 5696 5694 5693 5692 5691 5691 5690 5689 5687 5685 5683 5681 5679 5677 5676 5675
5692 5685 5665 5656 5654 5660 5674 5673 5691 5710 5715 5716 5716 5715 5715 5714 5714 5714 5714 5713 5712 5712 5711 5709 5707 5706 5705 5705 5703 5702 5701 5699 5697 5695 5694 5692 5691 5690 5690 5689 5687 5685 5683 5681 5679 5677 5676 5674 5673
5690 5683 5685 5669 5664 5660 5667 5681 5698 5710 5710 5711 5711 5711 5711 5712 5713 5713 5713 5712 5711 5710 5709 5708 5706 5705 5704 5703 5701 5700 5699 5697 5696 5694 5693 5692 5690 5690 5688 5687 5685 5684 5681 5679 5677 5675 5673 5672 5671
5701 5690 5675 5668 5657 5654 5668 5675 5683 5699 5703 5707 5707 5709 5710 5712 5712 5712 5711 5710 5709 5709 5707 5706 5705 5703 5702 5701 5699 5699 5697 5696 5695 5693 5691 5690 5689 5688 5687 5685 5683 5681 5679 5677 5675 5673 5671 5670 5669
5693 5688 5679 5669 5668 5657 5658 5673 5703 5706 5709 5708 5709 5711 5711 5710 5710 5710 5710 5709 5708 5707 5705 5704 5702 5701 5699 5698 5697 5696 5695 5694 5693 5691 5690 5689 5687 5686 5684 5683 5681 5679 5677 5675 5672 5670 5669 5667 5666
5705 5695 5684 5673 5668 5666 5663 5676 5713 5713 5714 5713 5711 5711 5711 5711 5710 5709 5708 5707 5705 5703 5702 5701 5700 5699 5698 5697 5695 5694 5692 5691 5690 5689 5688 5687 5685 5684 5682 5681 5678 5676 5674 5672 5670 5668 5666 5664 5663